Dauntless Aviation
Greetings, Guest! To participate, [sign up for a free account] or [log in]
Airports Europe United Kingdom
EGPY

Dounreay Thurso

UNITED KINGDOM

Airport Info
Edit

Location

Latitude / Longitude: 58°35'3"N / 3°43'31"W
  58°35.052'N / 3°43.518'W
  58.5842 / -3.7253

Runway Information

Runway 04 /22

Dimensions: 3300 x 100 ft.
Surface: U
 
Runway 04
Runway 22
Latitude: 58.579444 58.586944
Longitude: -3.731389 -3.721667
Elevation: 130 ft. 130 ft.
Runway true heading: 33.4 213.4
 
Satellite photo at:
Airport distance calculator
From:
Weather Reports

METAR

EGPC
22.2nm E
EGPC 011850Z 12012KT 7000 -RA FEW041 13/12 Q1011
EGPA
34.2nm NE
EGPA 011850Z AUTO 15017KT 120V190 8000 NCD 15/12 Q1011

TAF

EGPC
22.2nm E
TAF EGPC 011700Z 0118/0203 13011KT 9999 FEW040 TEMPO 0118/0203 13018G28KT PROB40 TEMPO 0118/0119 4000 TSRA PROB30 TEMPO 0119/0203 4000 +SHRA
EGPA
34.2nm NE
TAF AMD EGPA 011853Z 0118/0203 14014KT 9999 FEW040 TEMPO 0118/0203 15020G30KT PROB40 TEMPO 0118/0120 4000 TSRA PROB30 TEMPO 0119/0203 4000 +SHRA
Safelog

 

Dauntless Aviation

© 2007-2015 Dauntless Aviation, all rights reserved
Information provided via PilotNav comes from a variety of official and unofficial data sources. As errors are possible, do not use PilotNav for primary flight planning purposes. Verify any information that you receive via PilotNav with current and canonical charts and other official documents. The material in this database is subject to database copyrights held by Dauntless Aviation and may not be copied without the express permission of Dauntless Aviation - licenses for use of part of all of this data are available for purchase; enquire via the Dauntless Aviation helpdesk. A number of mechanisms and markers exist in the database to protect against and identify infringement / copyright. Automated queries against this website are stictly prohibited, and all activity is logged and analyzed.